S51FO-6 Weather Reports


time (UTC)temp
F
wind
direction
speed
knots
gust
knots
rain 1hr
in
rain 24hr
in
rain mn
in
humidity
%
barometer
mb
20260507161945 48 0.0 0.0 0.00 1.75 0.10 75
20260507155944 49 0.0 0.0 0.00 1.75 0.10 74
20260507152944 49 0.0 0.0 0.00 1.75 0.10 76
20260507151944 49 0.0 0.0 0.00 1.76 0.10 75
20260507150944 50 0.0 0.0 0.00 1.76 0.10 74
20260507145944 50 0.0 0.0 0.00 1.78 0.10 75
20260507142946 50 0.0 0.0 0.00 1.80 0.10 75
20260507141944 49 0.0 0.0 0.00 1.82 0.10 74
20260507140944 50 0.0 0.0 0.00 1.85 0.10 72
20260507134944 51 0.0 0.0 0.00 1.92 0.10 69
20260507133944 52 0.0 0.0 0.00 1.96 0.10 67
20260507132944 53 0.0 0.0 0.00 1.98 0.10 68
20260507131944 53 0.0 0.0 0.00 2.01 0.10 68
20260507130944 53 0.0 0.0 0.00 2.04 0.10 66
20260507124944 54 0.0 0.0 0.00 2.09 0.10 69
20260507124213 52 0.0 0.0 0.00 2.12 0.10 70
20260507123944 52 0.0 0.0 0.00 2.12 0.10 70
20260507122944 53 0.0 0.0 0.00 2.14 0.10 72
20260507121944 51 0.0 0.0 0.00 2.16 0.10 74
20260507120944 52 0.0 0.0 0.00 2.19 0.10 76
20260507115944 50 0.0 0.0 0.00 2.21 0.10 77
20260507114213 51 0.0 0.0 0.00 2.27 0.10 79
20260507113944 51 0.0 0.0 0.00 2.27 0.10 79
20260507112944 48 0.0 0.0 0.00 2.30 0.10 80
20260507111944 48 0.0 0.0 0.00 2.32 0.10 80
20260507110944 48 0.0 0.0 0.00 2.36 0.10 80
20260507105944 48 0.0 0.0 0.00 2.39 0.10 79
20260507104944 49 0.0 0.0 0.03 2.41 0.10 81
20260507103944 48 0.0 0.0 0.03 2.44 0.10 81
20260507102944 48 0.0 0.0 0.03 2.47 0.10 82
20260507100944 48 0.0 0.0 0.02 2.51 0.09 79
20260507093944 49 0.0 0.0 0.00 2.52 0.07 78
20260507092944 50 0.0 0.0 0.00 2.52 0.07 80
20260507091944 50 0.0 0.0 0.00 2.52 0.07 79
20260507090944 50 0.0 0.0 0.00 2.52 0.07 75
20260507085944 50 0.0 0.0 0.00 2.52 0.07 80
20260507084944 50 0.0 0.0 0.00 2.53 0.07 83
20260507083944 49 0.0 0.0 0.00 2.55 0.07 84
20260507082944 49 0.0 0.0 0.00 2.57 0.07 85
20260507081944 49 0.0 0.0 0.00 2.59 0.07 85
20260507080944 48 0.0 0.0 0.00 2.61 0.07 85
20260507074944 48 0.0 0.0 0.00 2.67 0.07 85
20260507073944 49 0.0 0.0 0.00 2.69 0.07 87
20260507072944 48 0.0 0.0 0.00 2.71 0.07 87
20260507071944 48 0.0 0.0 0.00 2.71 0.07 87
20260507070944 48 0.0 0.0 0.00 2.71 0.07 87
20260507065944 48 0.0 0.0 0.00 2.71 0.07 87
20260507064944 47 0.0 0.0 0.00 2.72 0.07 87
20260507063944 47 0.0 0.0 0.00 2.72 0.07 87
20260507062944 47 0.0 0.0 0.00 2.74 0.07 87
20260507061944 47 0.0 0.0 0.00 2.74 0.07 87
20260507055944 47 0.0 0.0 0.00 2.75 0.07 87
20260507054944 46 0.0 0.0 0.00 2.75 0.07 87
20260507051946 46 0.0 0.0 0.00 2.76 0.07 87
20260507044947 46 0.0 0.0 0.00 2.77 0.07 87
20260507043946 46 0.0 0.0 0.00 2.77 0.07 87
20260507041947 46 0.0 0.0 0.00 2.78 0.07 87
20260507035946 46 0.0 0.0 0.00 2.78 0.07 87
20260507032946 47 0.0 0.0 0.00 2.77 0.06 87
20260507031948 47 0.0 0.0 0.01 2.77 0.06 87
20260507030947 47 0.0 0.0 0.01 2.77 0.06 87
20260507025953 46 0.0 0.0 0.01 2.77 0.06 87
20260507024948 46 0.0 0.0 0.01 2.78 0.06 87
20260507023948 46 0.0 0.0 0.01 2.78 0.06 87
20260507022946 46 0.0 0.0 0.01 2.78 0.06 87
20260507021946 46 0.0 0.0 0.00 2.76 0.04 87
20260507020946 46 0.0 0.0 0.00 2.76 0.04 87
20260507014950 46 0.0 0.0 0.00 2.76 0.04 87
20260507013954 46 0.0 0.0 0.00 2.76 0.04 87
20260507012947 46 0.0 0.0 0.00 2.76 0.04 87
20260507011946 46 0.0 0.0 0.01 2.76 0.04 87
20260507010946 46 0.0 0.0 0.02 2.76 0.04 87
20260507010204 46 0.0 0.0 0.04 2.76 0.04 87
20260507005952 46 0.0 0.0 0.04 2.76 0.04 87
20260507004948 46 0.0 0.0 0.07 2.76 0.04 87
20260507003947 46 0.0 0.0 0.10 2.76 0.04 87
20260507002946 46 0.0 0.0 0.13 2.76 0.04 87
20260507001946 46 0.0 0.0 0.17 2.75 0.03 87
20260507000950 46 0.0 0.0 0.21 2.74 0.02 87
20260507000214 46 0.0 0.0 0.24 2.73 0.00 87
20260506235951 46 0.0 0.0 0.24 2.73 0.00 87
20260506234946 45 0.0 0.0 0.27 2.71 2.71 87
20260506230952 43 0.0 0.0 0.31 2.54 2.54 87
20260506225947 43 0.0 0.0 0.30 2.49 2.49 87
20260506224948 43 0.0 0.0 0.29 2.43 2.44 87
20260506221948 43 0.0 0.0 0.28 2.28 2.28 87
20260506220946 45 0.0 0.0 0.29 2.23 2.23 87
20260506215949 45 0.0 0.0 0.31 2.19 2.19 87
20260506214946 45 0.0 0.0 0.32 2.14 2.14 87
20260506213946 45 0.0 0.0 0.32 2.10 2.10 87
20260506211944 45 0.0 0.0 0.31 1.99 1.99 87
20260506210949 45 0.0 0.0 0.31 1.93 1.93 87
20260506205944 45 0.0 0.0 0.30 1.88 1.88 87
20260506204944 44 0.0 0.0 0.30 1.82 1.82 87
20260506203944 44 0.0 0.0 0.31 1.77 1.77 87
20260506202944 44 0.0 0.0 0.29 1.72 1.72 87
20260506201944 44 0.0 0.0 0.25 1.68 1.68 87
20260506200944 44 0.0 0.0 0.21 1.62 1.62 87
20260506195944 44 0.0 0.0 0.19 1.57 1.57 87
20260506194944 44 0.0 0.0 0.16 1.52 1.52 87
20260506191944 48 0.0 0.0 0.16 1.42 1.42 87
20260506190944 48 0.0 0.0 0.18 1.40 1.40 87
20260506185944 48 0.0 0.0 0.17 1.38 1.38 87
20260506184946 48 0.0 0.0 0.16 1.36 1.36 87
20260506183944 48 0.0 0.0 0.16 1.33 1.33 88
20260506182944 48 0.0 0.0 0.16 1.30 1.30 87
20260506181944 48 0.0 0.0 0.15 1.26 1.26 88
20260506175944 48 0.0 0.0 0.11 1.22 1.20 87
20260506174944 48 0.0 0.0 0.09 1.21 1.19 87
20260506173944 48 0.0 0.0 0.08 1.20 1.16 87
20260506172944 48 0.0 0.0 0.04 1.16 1.13 87
20260506171944 48 0.0 0.0 0.02 1.15 1.11 87
20260506170944 48 0.0 0.0 0.02 1.16 1.11 87
20260506164944 48 0.0 0.0 0.00 1.16 1.09 87
20260506163944 48 0.0 0.0 0.00 1.16 1.08 87
20260506162944 48 0.0 0.0 0.00 1.18 1.08 87